RYS1FH LEPA-EPKT

Flight info

Callsign RYS1FH
Flight time 2h 25m
Altitude 36000
Route ISTER DCT NIVDA DCT OMEDA DCT RAPUR DCT TORTU DCT ERTEV DCT MALUG DCT NAVTI DCT LABUK DCT BAVOK
Aircraft B738/M-SDE2E3FGHIRWXY/LB1

Departure

Time 2026-05-04 20:21
Airport Palma de Mallorca Airport (LEPA)

Arrival

Time 2026-05-04 22:46
Airport Katowice Wojciech Korfanty International Airport (EPKT)
Time Latitude Longitude Altitude Speed Heading
2026-05-04 20:01 39.54715 2.73673 35 ft 0 kts 58°
2026-05-04 20:07 39.54713 2.73669 35 ft 3 kts 58°
2026-05-04 20:07 39.54704 2.73651 35 ft 3 kts 60°
2026-05-04 20:08 39.54697 2.73631 35 ft 2 kts 74°
2026-05-04 20:08 39.54694 2.73609 33 ft 3 kts 103°
2026-05-04 20:08 39.54698 2.73589 35 ft 3 kts 135°
2026-05-04 20:08 39.54711 2.73576 33 ft 3 kts 148°
2026-05-04 20:09 39.54729 2.73562 35 ft 3 kts 148°
2026-05-04 20:09 39.54737 2.73556 33 ft 1 kts 148°
2026-05-04 20:14 39.54736 2.73556 33 ft 1 kts 148°
2026-05-04 20:14 39.54715 2.73573 33 ft 7 kts 148°
2026-05-04 20:14 39.54665 2.73617 43 ft 5 kts 134°
2026-05-04 20:15 39.54666 2.73686 38 ft 12 kts 63°
2026-05-04 20:15 39.54714 2.73789 33 ft 14 kts 60°
2026-05-04 20:15 39.54764 2.73892 34 ft 13 kts 55°
2026-05-04 20:15 39.54815 2.73984 35 ft 13 kts 28°
2026-05-04 20:16 39.54898 2.73964 35 ft 12 kts 343°
2026-05-04 20:16 39.54974 2.74003 35 ft 12 kts 353°
2026-05-04 20:16 39.55050 2.73950 35 ft 13 kts 329°
2026-05-04 20:16 39.55137 2.73881 35 ft 17 kts 328°
2026-05-04 20:17 39.55250 2.73793 34 ft 21 kts 328°
2026-05-04 20:17 39.55379 2.73690 35 ft 22 kts 329°
2026-05-04 20:17 39.55507 2.73587 30 ft 21 kts 329°
2026-05-04 20:17 39.55631 2.73501 30 ft 17 kts 358°
2026-05-04 20:18 39.55707 2.73614 25 ft 18 kts 59°
2026-05-04 20:18 39.55772 2.73749 27 ft 17 kts 58°
2026-05-04 20:18 39.55834 2.73880 23 ft 17 kts 59°
2026-05-04 20:18 39.55894 2.74006 23 ft 16 kts 58°
2026-05-04 20:19 39.55951 2.74128 19 ft 15 kts 58°
2026-05-04 20:19 39.56007 2.74243 17 ft 15 kts 54°
2026-05-04 20:19 39.56088 2.74321 16 ft 14 kts 29°
2026-05-04 20:19 39.56180 2.74356 16 ft 14 kts 356°
2026-05-04 20:20 39.56231 2.74271 16 ft 13 kts 263°
2026-05-04 20:20 39.56171 2.74136 17 ft 36 kts 237°
2026-05-04 20:20 39.55901 2.73568 22 ft 110 kts 238°
2026-05-04 20:20 39.55386 2.72492 54 ft 167 kts 238°
2026-05-04 20:21 39.54780 2.71176 829 ft 172 kts 238°
2026-05-04 20:21 39.54141 2.69821 1682 ft 180 kts 237°
2026-05-04 20:21 39.52854 2.67218 3810 ft 162 kts 238°
2026-05-04 20:22 39.52206 2.65946 4475 ft 179 kts 238°
2026-05-04 20:22 39.51489 2.64519 4891 ft 199 kts 238°
2026-05-04 20:22 39.50709 2.62970 5430 ft 210 kts 239°
2026-05-04 20:22 39.49883 2.61363 6091 ft 223 kts 231°
2026-05-04 20:23 39.48530 2.60138 6379 ft 256 kts 203°
2026-05-04 20:23 39.46714 2.59824 7050 ft 273 kts 178°
2026-05-04 20:23 39.44890 2.60634 7910 ft 285 kts 150°
2026-05-04 20:23 39.43504 2.62504 8804 ft 297 kts 123°
2026-05-04 20:24 39.42873 2.65093 9623 ft 309 kts 99°
2026-05-04 20:24 39.42759 2.67901 10354 ft 319 kts 92°
2026-05-04 20:24 39.42794 2.70876 10594 ft 344 kts 90°
2026-05-04 20:24 39.42862 2.74055 11018 ft 360 kts 90°
2026-05-04 20:25 39.42920 2.77330 11687 ft 367 kts 91°
2026-05-04 20:25 39.42954 2.80641 12457 ft 371 kts 92°
2026-05-04 20:25 39.42968 2.84001 13223 ft 376 kts 92°
2026-05-04 20:25 39.42966 2.87409 13959 ft 381 kts 92°
2026-05-04 20:26 39.42955 2.90857 14610 ft 386 kts 93°
2026-05-04 20:26 39.42939 2.94347 15294 ft 390 kts 93°
2026-05-04 20:26 39.42919 2.97870 15979 ft 394 kts 93°
2026-05-04 20:26 39.42899 3.01430 16642 ft 399 kts 93°
2026-05-04 20:27 39.42877 3.05030 17298 ft 403 kts 93°
2026-05-04 20:27 39.42862 3.07436 17734 ft 406 kts 93°
2026-05-04 20:27 39.42838 3.11118 18372 ft 411 kts 93°
2026-05-04 20:27 39.42813 3.14822 18931 ft 415 kts 93°
2026-05-04 20:28 39.42778 3.19807 19675 ft 420 kts 93°
2026-05-04 20:28 39.42982 3.23611 20190 ft 429 kts 82°
2026-05-04 20:28 39.43736 3.27376 20700 ft 436 kts 71°
2026-05-04 20:28 39.45004 3.30959 21240 ft 441 kts 60°
2026-05-04 20:29 39.46045 3.33278 21578 ft 444 kts 59°
2026-05-04 20:29 39.47661 3.36727 22069 ft 449 kts 58°
2026-05-04 20:29 39.49307 3.40184 22551 ft 455 kts 58°
2026-05-04 20:29 39.50948 3.43644 23035 ft 459 kts 58°
2026-05-04 20:30 39.52617 3.47203 23515 ft 464 kts 59°
2026-05-04 20:30 39.54282 3.50795 23924 ft 468 kts 59°
2026-05-04 20:30 39.55959 3.54440 24385 ft 471 kts 59°
2026-05-04 20:30 39.57628 3.58089 24820 ft 473 kts 59°
2026-05-04 20:31 39.59313 3.61781 25241 ft 476 kts 59°
2026-05-04 20:31 39.60996 3.65475 25657 ft 480 kts 59°
2026-05-04 20:31 39.62699 3.69218 26062 ft 483 kts 59°
2026-05-04 20:31 39.64410 3.72979 26469 ft 486 kts 59°
2026-05-04 20:32 39.66136 3.76779 26858 ft 489 kts 60°
2026-05-04 20:32 39.67865 3.80588 27255 ft 492 kts 60°
2026-05-04 20:32 39.69600 3.84414 27624 ft 495 kts 60°
2026-05-04 20:32 39.71349 3.88277 27999 ft 497 kts 60°
2026-05-04 20:33 39.73111 3.92172 28371 ft 500 kts 60°
2026-05-04 20:33 39.74876 3.96079 28738 ft 503 kts 60°
2026-05-04 20:33 39.76650 4.00013 29096 ft 505 kts 60°
2026-05-04 20:33 39.78427 4.03955 29445 ft 508 kts 60°
2026-05-04 20:34 39.80216 4.07932 29780 ft 511 kts 60°
2026-05-04 20:34 39.82015 4.11935 30116 ft 513 kts 60°
2026-05-04 20:34 39.83816 4.15946 30372 ft 515 kts 60°
2026-05-04 20:34 39.85625 4.19981 30642 ft 518 kts 60°
2026-05-04 20:35 39.87444 4.24039 30902 ft 520 kts 60°
2026-05-04 20:35 39.89271 4.28109 31208 ft 521 kts 60°
2026-05-04 20:35 39.91103 4.32187 31584 ft 520 kts 60°
2026-05-04 20:35 39.92919 4.36234 31962 ft 519 kts 60°
2026-05-04 20:36 39.94746 4.40309 32303 ft 519 kts 60°
2026-05-04 20:36 39.96562 4.44371 32608 ft 519 kts 60°
2026-05-04 20:36 39.98381 4.48445 32927 ft 520 kts 60°
2026-05-04 20:36 40.00194 4.52510 33267 ft 519 kts 60°
2026-05-04 20:37 40.02006 4.56581 33591 ft 519 kts 60°
2026-05-04 20:37 40.03817 4.60653 33897 ft 519 kts 60°
2026-05-04 20:37 40.05634 4.64739 34169 ft 519 kts 59°
2026-05-04 20:37 40.07613 4.68661 34451 ft 517 kts 51°
2026-05-04 20:38 40.09870 4.72315 34797 ft 514 kts 48°
2026-05-04 20:38 40.12164 4.75872 35161 ft 511 kts 47°
2026-05-04 20:38 40.14469 4.79396 35562 ft 507 kts 47°
2026-05-04 20:38 40.16745 4.82884 35940 ft 504 kts 47°
2026-05-04 20:39 40.21288 4.89934 35981 ft 509 kts 48°
2026-05-04 20:39 40.25807 4.97053 35962 ft 505 kts 48°
2026-05-04 20:40 40.30248 5.04095 35974 ft 500 kts 48°
2026-05-04 20:40 40.34676 5.11129 35981 ft 500 kts 48°
2026-05-04 20:41 40.39099 5.18163 35980 ft 500 kts 49°
2026-05-04 20:41 40.43519 5.25209 35977 ft 500 kts 49°
2026-05-04 20:42 40.47933 5.32259 35971 ft 500 kts 49°
2026-05-04 20:42 40.52344 5.39322 35973 ft 500 kts 49°
2026-05-04 20:43 40.56754 5.46399 35972 ft 500 kts 49°
2026-05-04 20:43 40.61163 5.53492 35977 ft 500 kts 49°
2026-05-04 20:44 40.65538 5.60545 35977 ft 501 kts 49°
2026-05-04 20:44 40.69934 5.67649 35977 ft 501 kts 49°
2026-05-04 20:45 40.74328 5.74766 35974 ft 500 kts 49°
2026-05-04 20:45 40.78717 5.81892 35975 ft 500 kts 49°
2026-05-04 20:46 40.83103 5.89029 35977 ft 500 kts 49°
2026-05-04 20:46 40.87470 5.96152 35976 ft 499 kts 49°
2026-05-04 20:47 40.91835 6.03289 35975 ft 499 kts 49°
2026-05-04 20:47 40.96187 6.10420 35975 ft 498 kts 49°
2026-05-04 20:48 41.00523 6.17543 35973 ft 497 kts 49°
2026-05-04 20:48 41.04863 6.24687 35976 ft 497 kts 49°
2026-05-04 20:49 41.09185 6.31820 35977 ft 496 kts 49°
2026-05-04 20:49 41.13500 6.38957 35981 ft 496 kts 50°
2026-05-04 20:50 41.17807 6.46099 35977 ft 495 kts 50°
2026-05-04 20:50 41.22104 6.53239 35977 ft 495 kts 50°
2026-05-04 20:51 41.26417 6.60369 35979 ft 495 kts 49°
2026-05-04 20:51 41.30801 6.67404 35981 ft 494 kts 48°
2026-05-04 20:52 41.35203 6.74439 35983 ft 494 kts 49°
2026-05-04 20:52 41.39592 6.81500 35985 ft 495 kts 49°
2026-05-04 20:53 41.43939 6.88530 35982 ft 495 kts 49°
2026-05-04 20:53 41.48297 6.95600 35984 ft 495 kts 49°
2026-05-04 20:54 41.52669 7.02708 35983 ft 495 kts 49°
2026-05-04 20:54 41.57037 7.09825 35989 ft 495 kts 49°
2026-05-04 20:55 41.61393 7.16939 35988 ft 495 kts 49°
2026-05-04 20:55 41.65749 7.24069 35992 ft 495 kts 49°
2026-05-04 20:56 41.70096 7.31203 35995 ft 495 kts 49°
2026-05-04 20:56 41.74436 7.38341 35995 ft 494 kts 50°
2026-05-04 20:57 41.78771 7.45488 35998 ft 494 kts 50°
2026-05-04 20:57 41.83092 7.52628 36000 ft 494 kts 50°
2026-05-04 20:58 41.87414 7.59789 36003 ft 493 kts 50°
2026-05-04 20:58 41.91730 7.66955 36007 ft 493 kts 50°
2026-05-04 20:59 41.96030 7.74112 36004 ft 493 kts 50°
2026-05-04 20:59 42.00332 7.81290 36013 ft 493 kts 50°
2026-05-04 21:00 42.04627 7.88474 36010 ft 492 kts 50°
2026-05-04 21:00 42.08914 7.95661 36020 ft 492 kts 50°
2026-05-04 21:01 42.13197 8.02857 36025 ft 492 kts 50°
2026-05-04 21:01 42.17441 8.10008 36019 ft 492 kts 50°
2026-05-04 21:02 42.21717 8.17230 36024 ft 492 kts 50°
2026-05-04 21:02 42.25985 8.24454 36015 ft 492 kts 50°
2026-05-04 21:03 42.30268 8.31630 36031 ft 491 kts 45°
2026-05-04 21:03 42.35503 8.37435 36036 ft 484 kts 27°
2026-05-04 21:04 42.41549 8.41200 36050 ft 477 kts 17°
2026-05-04 21:04 42.47734 8.44504 36050 ft 477 kts 17°
2026-05-04 21:05 42.53896 8.47858 36042 ft 479 kts 17°
2026-05-04 21:05 42.60061 8.51284 36049 ft 479 kts 17°
2026-05-04 21:06 42.66241 8.54744 36042 ft 480 kts 17°
2026-05-04 21:06 42.72422 8.58208 36044 ft 480 kts 17°
2026-05-04 21:07 42.78596 8.61673 36041 ft 481 kts 18°
2026-05-04 21:07 42.84782 8.65152 36044 ft 481 kts 18°
2026-05-04 21:08 42.90971 8.68639 36043 ft 481 kts 18°
2026-05-04 21:08 42.97152 8.72122 36040 ft 480 kts 18°
2026-05-04 21:09 43.03328 8.75610 36038 ft 480 kts 18°
2026-05-04 21:09 43.09489 8.79097 36038 ft 479 kts 18°
2026-05-04 21:10 43.15639 8.82587 36037 ft 479 kts 18°
2026-05-04 21:10 43.21790 8.86085 36044 ft 478 kts 18°
2026-05-04 21:11 43.27934 8.89587 36039 ft 477 kts 18°
2026-05-04 21:11 43.34056 8.93084 36042 ft 476 kts 18°
2026-05-04 21:12 43.40278 8.95655 36048 ft 464 kts
2026-05-04 21:12 43.46608 8.95936 36049 ft 454 kts 352°
2026-05-04 21:13 43.52946 8.95804 36042 ft 454 kts 353°
2026-05-04 21:13 43.59271 8.95804 36039 ft 456 kts 356°
2026-05-04 21:14 43.62446 8.96426 36035 ft 466 kts 10°
2026-05-04 21:14 43.65504 8.97984 36045 ft 473 kts 23°
2026-05-04 21:14 43.68297 9.00428 36049 ft 478 kts 34°
2026-05-04 21:14 43.70906 9.03281 36053 ft 479 kts 36°
2026-05-04 21:15 43.76047 9.09165 36052 ft 480 kts 37°
2026-05-04 21:15 43.81198 9.15040 36051 ft 480 kts 36°
2026-05-04 21:16 43.85508 9.19886 36054 ft 480 kts 36°
2026-05-04 21:16 43.90700 9.25687 36061 ft 479 kts 36°
2026-05-04 21:17 43.95893 9.31488 36067 ft 479 kts 36°
2026-05-04 21:17 44.01072 9.37292 36068 ft 478 kts 36°
2026-05-04 21:18 44.06248 9.43107 36075 ft 478 kts 36°
2026-05-04 21:18 44.11412 9.48926 36077 ft 477 kts 36°
2026-05-04 21:19 44.16550 9.54728 36086 ft 475 kts 36°
2026-05-04 21:19 44.21679 9.60533 36095 ft 474 kts 36°
2026-05-04 21:20 44.26795 9.66337 36086 ft 473 kts 36°
2026-05-04 21:20 44.31881 9.72119 36101 ft 472 kts 36°
2026-05-04 21:21 44.36965 9.77914 36097 ft 472 kts 36°
2026-05-04 21:21 44.42047 9.83719 36100 ft 471 kts 36°
2026-05-04 21:22 44.47108 9.89514 36100 ft 471 kts 36°
2026-05-04 21:22 44.52173 9.95326 36106 ft 470 kts 36°
2026-05-04 21:23 44.57221 10.01132 36097 ft 470 kts 36°
2026-05-04 21:23 44.62286 10.06972 36084 ft 471 kts 36°
2026-05-04 21:24 44.67340 10.12813 36089 ft 470 kts 37°
2026-05-04 21:24 44.72386 10.18657 36079 ft 470 kts 37°
2026-05-04 21:25 44.77434 10.24519 36077 ft 470 kts 37°
2026-05-04 21:25 44.82465 10.30374 36074 ft 469 kts 37°
2026-05-04 21:26 44.87498 10.36245 36071 ft 469 kts 37°
2026-05-04 21:26 44.92509 10.42105 36073 ft 468 kts 37°
2026-05-04 21:27 44.97508 10.47963 36077 ft 467 kts 37°
2026-05-04 21:27 45.02494 10.53821 36085 ft 466 kts 37°
2026-05-04 21:28 45.07468 10.59677 36071 ft 464 kts 37°
2026-05-04 21:28 45.12392 10.65488 36072 ft 463 kts 37°
2026-05-04 21:29 45.17363 10.71370 36077 ft 462 kts 37°
2026-05-04 21:29 45.22293 10.77214 36062 ft 461 kts 37°
2026-05-04 21:30 45.27174 10.83016 36049 ft 460 kts 37°
2026-05-04 21:30 45.32101 10.88885 36055 ft 459 kts 38°
2026-05-04 21:31 45.39423 10.97633 36064 ft 458 kts 38°
2026-05-04 21:32 45.44292 11.03468 36050 ft 457 kts 38°
2026-05-04 21:32 45.49165 11.09321 36065 ft 457 kts 38°
2026-05-04 21:33 45.53997 11.15137 36053 ft 457 kts 38°
2026-05-04 21:33 45.58856 11.21001 36061 ft 457 kts 38°
2026-05-04 21:34 45.63711 11.26873 36071 ft 457 kts 38°
2026-05-04 21:34 45.68560 11.32752 36087 ft 458 kts 38°
2026-05-04 21:35 45.73414 11.38652 36097 ft 458 kts 38°
2026-05-04 21:35 45.78262 11.44557 36096 ft 457 kts 38°
2026-05-04 21:36 45.83096 11.50460 36095 ft 458 kts 39°
2026-05-04 21:36 45.87957 11.56409 36118 ft 458 kts 39°
2026-05-04 21:37 45.92800 11.62350 36121 ft 458 kts 39°
2026-05-04 21:37 45.97638 11.68300 36110 ft 457 kts 39°
2026-05-04 21:38 46.02379 11.74144 36099 ft 458 kts 39°
2026-05-04 21:38 46.07258 11.80173 36089 ft 458 kts 39°
2026-05-04 21:39 46.12087 11.86155 36080 ft 457 kts 39°
2026-05-04 21:39 46.16900 11.92130 36081 ft 457 kts 39°
2026-05-04 21:40 46.21688 11.98089 36083 ft 456 kts 39°
2026-05-04 21:40 46.26443 12.04022 36070 ft 455 kts 39°
2026-05-04 21:41 46.31225 12.10002 36070 ft 455 kts 39°
2026-05-04 21:41 46.35979 12.15961 36075 ft 455 kts 39°
2026-05-04 21:42 46.40759 12.21967 36082 ft 455 kts 40°
2026-05-04 21:42 46.45566 12.28022 36099 ft 455 kts 40°
2026-05-04 21:43 46.50303 12.34003 36117 ft 454 kts 40°
2026-05-04 21:43 46.55075 12.40043 36119 ft 455 kts 40°
2026-05-04 21:44 46.59848 12.46099 36113 ft 456 kts 40°
2026-05-04 21:44 46.64614 12.52163 36109 ft 455 kts 40°
2026-05-04 21:45 46.69379 12.58237 36107 ft 454 kts 40°
2026-05-04 21:45 46.73783 12.64661 36091 ft 454 kts 47°
2026-05-04 21:46 46.77945 12.71606 36072 ft 454 kts 48°
2026-05-04 21:46 46.82033 12.78488 36063 ft 453 kts 48°
2026-05-04 21:47 46.86194 12.85418 36068 ft 453 kts 48°
2026-05-04 21:47 46.90350 12.92300 36067 ft 452 kts 48°
2026-05-04 21:48 46.94460 12.99107 36057 ft 452 kts 48°
2026-05-04 21:48 46.98612 13.06004 36057 ft 452 kts 48°
2026-05-04 21:49 47.02773 13.12934 36057 ft 452 kts 48°
2026-05-04 21:49 47.06923 13.19866 36046 ft 453 kts 48°
2026-05-04 21:50 47.11071 13.26811 36035 ft 453 kts 48°
2026-05-04 21:50 47.15222 13.33781 36028 ft 453 kts 48°
2026-05-04 21:51 47.19369 13.40762 36032 ft 453 kts 48°
2026-05-04 21:51 47.23485 13.47709 36029 ft 454 kts 49°
2026-05-04 21:52 47.27630 13.54722 36029 ft 454 kts 49°
2026-05-04 21:52 47.31760 13.61727 36020 ft 454 kts 49°
2026-05-04 21:53 47.35897 13.68763 36011 ft 455 kts 49°
2026-05-04 21:53 47.40032 13.75816 36012 ft 454 kts 49°
2026-05-04 21:54 47.44160 13.82873 36014 ft 453 kts 49°
2026-05-04 21:54 47.48271 13.89920 36007 ft 453 kts 49°
2026-05-04 21:55 47.52302 13.96849 36008 ft 452 kts 49°
2026-05-04 21:55 47.56400 14.03909 36001 ft 451 kts 49°
2026-05-04 21:56 47.60488 14.10972 35996 ft 451 kts 49°
2026-05-04 21:56 47.64555 14.18016 35999 ft 451 kts 49°
2026-05-04 21:57 47.68641 14.25112 35982 ft 451 kts 49°
2026-05-04 21:57 47.72710 14.32198 35984 ft 451 kts 49°
2026-05-04 21:58 47.76785 14.39313 35975 ft 452 kts 49°
2026-05-04 21:58 47.80847 14.46422 35964 ft 452 kts 49°
2026-05-04 21:59 47.84905 14.53545 35968 ft 451 kts 49°
2026-05-04 21:59 47.88959 14.60678 35967 ft 451 kts 49°
2026-05-04 22:00 47.93013 14.67831 35960 ft 451 kts 49°
2026-05-04 22:00 47.97057 14.74986 35947 ft 451 kts 49°
2026-05-04 22:01 48.01066 14.82097 35955 ft 451 kts 49°
2026-05-04 22:01 48.05109 14.89289 35951 ft 451 kts 50°
2026-05-04 22:02 48.09144 14.96486 35948 ft 451 kts 50°
2026-05-04 22:02 48.12508 15.02501 35943 ft 451 kts 50°
2026-05-04 22:03 48.16525 15.09699 35940 ft 451 kts 50°
2026-05-04 22:03 48.20517 15.16873 35942 ft 451 kts 50°
2026-05-04 22:04 48.24550 15.24141 35940 ft 451 kts 50°
2026-05-04 22:04 48.28535 15.31340 35937 ft 451 kts 50°
2026-05-04 22:05 48.32562 15.38636 35931 ft 450 kts 50°
2026-05-04 22:05 48.36522 15.45829 35932 ft 450 kts 50°
2026-05-04 22:06 48.40511 15.53095 35926 ft 450 kts 50°
2026-05-04 22:06 48.44488 15.60360 35924 ft 449 kts 50°
2026-05-04 22:07 48.48448 15.67612 35924 ft 448 kts 50°
2026-05-04 22:07 48.52404 15.74877 35928 ft 448 kts 50°
2026-05-04 22:08 48.56345 15.82133 35926 ft 447 kts 50°
2026-05-04 22:08 48.60275 15.89391 35924 ft 446 kts 50°
2026-05-04 22:09 48.64206 15.96669 35927 ft 446 kts 50°
2026-05-04 22:09 48.68120 16.03936 35926 ft 446 kts 50°
2026-05-04 22:10 48.72032 16.11219 35926 ft 445 kts 50°
2026-05-04 22:10 48.75933 16.18498 35929 ft 445 kts 50°
2026-05-04 22:11 48.79966 16.25545 35928 ft 444 kts 46°
2026-05-04 22:11 48.84247 16.32392 35934 ft 444 kts 45°
2026-05-04 22:12 48.88502 16.39192 35942 ft 444 kts 45°
2026-05-04 22:12 48.92733 16.46045 35943 ft 444 kts 45°
2026-05-04 22:13 48.96941 16.52919 35941 ft 444 kts 45°
2026-05-04 22:13 49.01125 16.59781 35930 ft 437 kts 45°
2026-05-04 22:14 49.05228 16.66526 35939 ft 433 kts 45°
2026-05-04 22:14 49.09305 16.73243 35939 ft 430 kts 45°
2026-05-04 22:14 49.11308 16.76551 35915 ft 417 kts 45°
2026-05-04 22:15 49.13220 16.79714 35848 ft 405 kts 45°
2026-05-04 22:15 49.15122 16.82863 35527 ft 401 kts 45°
2026-05-04 22:15 49.17032 16.86025 34669 ft 412 kts 45°
2026-05-04 22:15 49.18993 16.89272 33922 ft 421 kts 46°
2026-05-04 22:16 49.20984 16.92578 33413 ft 420 kts 46°
2026-05-04 22:16 49.22957 16.95859 32879 ft 420 kts 46°
2026-05-04 22:16 49.24921 16.99132 32491 ft 416 kts 46°
2026-05-04 22:16 49.26873 17.02388 32105 ft 412 kts 46°
2026-05-04 22:17 49.28802 17.05610 31731 ft 409 kts 46°
2026-05-04 22:17 49.30716 17.08809 31367 ft 406 kts 46°
2026-05-04 22:17 49.32611 17.11981 31005 ft 402 kts 46°
2026-05-04 22:17 49.34494 17.15136 30655 ft 399 kts 46°
2026-05-04 22:18 49.36365 17.18275 30303 ft 396 kts 46°
2026-05-04 22:18 49.38218 17.21388 29930 ft 394 kts 46°
2026-05-04 22:18 49.40057 17.24480 29518 ft 391 kts 46°
2026-05-04 22:18 49.41872 17.27536 29160 ft 386 kts 46°
2026-05-04 22:19 49.43671 17.30570 28774 ft 383 kts 46°
2026-05-04 22:19 49.45455 17.33579 28411 ft 379 kts 46°
2026-05-04 22:19 49.47220 17.36562 28035 ft 376 kts 46°
2026-05-04 22:19 49.48974 17.39527 27683 ft 373 kts 46°
2026-05-04 22:20 49.50715 17.42445 27351 ft 369 kts 45°
2026-05-04 22:20 49.52498 17.45243 27046 ft 364 kts 44°
2026-05-04 22:20 49.54293 17.47975 26695 ft 362 kts 43°
2026-05-04 22:20 49.56086 17.50684 26333 ft 360 kts 43°
2026-05-04 22:21 49.57867 17.53385 26003 ft 358 kts 43°
2026-05-04 22:21 49.59626 17.56068 25663 ft 356 kts 43°
2026-05-04 22:21 49.61355 17.58716 25311 ft 354 kts 44°
2026-05-04 22:21 49.63095 17.61391 24980 ft 353 kts 44°
2026-05-04 22:22 49.64827 17.64062 24640 ft 351 kts 44°
2026-05-04 22:22 49.66575 17.66762 24289 ft 350 kts 44°
2026-05-04 22:22 49.68271 17.69386 23947 ft 349 kts 44°
2026-05-04 22:22 49.69983 17.72039 23604 ft 349 kts 44°
2026-05-04 22:23 49.71693 17.74693 23198 ft 348 kts 44°
2026-05-04 22:23 49.73395 17.77335 22832 ft 346 kts 44°
2026-05-04 22:23 49.75058 17.79920 22478 ft 344 kts 44°
2026-05-04 22:23 49.76748 17.82551 22131 ft 342 kts 44°
2026-05-04 22:24 49.78416 17.85151 21789 ft 340 kts 44°
2026-05-04 22:24 49.80081 17.87747 21453 ft 338 kts 44°
2026-05-04 22:24 49.81729 17.90319 21122 ft 336 kts 44°
2026-05-04 22:24 49.83370 17.92883 20790 ft 335 kts 45°
2026-05-04 22:25 49.85006 17.95442 20475 ft 333 kts 45°
2026-05-04 22:25 49.86633 17.97991 20130 ft 332 kts 45°
2026-05-04 22:25 49.88252 18.00529 19807 ft 330 kts 45°
2026-05-04 22:25 49.89864 18.03059 19477 ft 329 kts 45°
2026-05-04 22:26 49.91471 18.05583 19146 ft 329 kts 45°
2026-05-04 22:26 49.93077 18.08108 18817 ft 328 kts 45°
2026-05-04 22:26 49.94679 18.10630 18484 ft 328 kts 45°
2026-05-04 22:27 49.96037 18.12768 18196 ft 327 kts 45°
2026-05-04 22:27 49.97634 18.15286 17820 ft 326 kts 45°
2026-05-04 22:27 49.99223 18.17794 17470 ft 325 kts 45°
2026-05-04 22:27 50.00769 18.20339 17118 ft 324 kts 51°
2026-05-04 22:28 50.02102 18.23144 16803 ft 322 kts 56°
2026-05-04 22:28 50.03340 18.26037 16470 ft 320 kts 57°
2026-05-04 22:28 50.04561 18.28925 16156 ft 318 kts 57°
2026-05-04 22:28 50.05783 18.31783 15838 ft 317 kts 56°
2026-05-04 22:29 50.07013 18.34621 15518 ft 316 kts 56°
2026-05-04 22:29 50.08247 18.37445 15216 ft 315 kts 56°
2026-05-04 22:29 50.09484 18.40260 14896 ft 314 kts 56°
2026-05-04 22:29 50.10712 18.43052 14589 ft 313 kts 56°
2026-05-04 22:30 50.11938 18.45839 14282 ft 312 kts 56°
2026-05-04 22:30 50.13167 18.48618 13978 ft 311 kts 54°
2026-05-04 22:30 50.14518 18.51253 13691 ft 312 kts 49°
2026-05-04 22:30 50.15959 18.53808 13383 ft 314 kts 48°
2026-05-04 22:31 50.17416 18.56364 13091 ft 316 kts 49°
2026-05-04 22:31 50.18854 18.58920 12800 ft 314 kts 49°
2026-05-04 22:31 50.20282 18.61492 12506 ft 312 kts 49°
2026-05-04 22:31 50.21693 18.64048 12227 ft 309 kts 49°
2026-05-04 22:32 50.23100 18.66577 11957 ft 307 kts 46°
2026-05-04 22:32 50.24670 18.68788 11739 ft 303 kts 38°
2026-05-04 22:32 50.26339 18.70776 11527 ft 300 kts 36°
2026-05-04 22:32 50.27222 18.71801 11423 ft 300 kts 36°
2026-05-04 22:33 50.28671 18.73521 11239 ft 302 kts 37°
2026-05-04 22:33 50.30354 18.75505 11040 ft 303 kts 37°
2026-05-04 22:33 50.32023 18.77495 10825 ft 304 kts 37°
2026-05-04 22:33 50.33691 18.79511 10611 ft 304 kts 38°
2026-05-04 22:34 50.35366 18.81552 10398 ft 304 kts 38°
2026-05-04 22:34 50.37032 18.83589 10182 ft 304 kts 38°
2026-05-04 22:34 50.38395 18.85996 9943 ft 298 kts 64°
2026-05-04 22:34 50.39004 18.89072 9737 ft 289 kts 87°
2026-05-04 22:35 50.39030 18.92140 9549 ft 283 kts 93°
2026-05-04 22:35 50.38991 18.95227 9334 ft 283 kts 93°
2026-05-04 22:35 50.38954 18.98318 9135 ft 285 kts 93°
2026-05-04 22:35 50.38921 19.01473 8941 ft 285 kts 93°
2026-05-04 22:36 50.38898 19.04573 8725 ft 285 kts 92°
2026-05-04 22:36 50.38877 19.07641 8525 ft 285 kts 92°
2026-05-04 22:36 50.38856 19.10746 8324 ft 285 kts 92°
2026-05-04 22:36 50.38836 19.13852 8122 ft 285 kts 92°
2026-05-04 22:37 50.38818 19.16945 7921 ft 284 kts 92°
2026-05-04 22:37 50.38798 19.20051 7715 ft 283 kts 92°
2026-05-04 22:37 50.38777 19.23128 7518 ft 282 kts 92°
2026-05-04 22:37 50.38757 19.26192 7318 ft 281 kts 92°
2026-05-04 22:38 50.38739 19.29256 7121 ft 280 kts 92°
2026-05-04 22:38 50.38720 19.32281 6915 ft 276 kts 93°
2026-05-04 22:38 50.38701 19.35266 6721 ft 272 kts 93°
2026-05-04 22:38 50.38681 19.38195 6528 ft 268 kts 93°
2026-05-04 22:39 50.38663 19.41100 6325 ft 264 kts 93°
2026-05-04 22:39 50.38646 19.43959 6128 ft 261 kts 93°
2026-05-04 22:39 50.38709 19.46774 5920 ft 259 kts 79°
2026-05-04 22:39 50.39494 19.49280 5730 ft 258 kts 48°
2026-05-04 22:40 50.40947 19.50836 5565 ft 254 kts 18°
2026-05-04 22:40 50.42668 19.51317 5410 ft 253 kts
2026-05-04 22:40 50.44438 19.51361 5230 ft 254 kts 354°
2026-05-04 22:40 50.46088 19.50563 5026 ft 248 kts 321°
2026-05-04 22:41 50.47161 19.48563 4823 ft 239 kts 288°
2026-05-04 22:41 50.47475 19.46073 4630 ft 229 kts 269°
2026-05-04 22:41 50.47508 19.43590 4416 ft 226 kts 266°
2026-05-04 22:41 50.47511 19.41148 4211 ft 223 kts 266°
2026-05-04 22:42 50.47521 19.38737 4051 ft 218 kts 266°
2026-05-04 22:42 50.47522 19.36415 3990 ft 208 kts 266°
2026-05-04 22:42 50.47525 19.34158 3991 ft 206 kts 266°
2026-05-04 22:42 50.47530 19.31914 3990 ft 205 kts 266°
2026-05-04 22:43 50.47536 19.29673 3999 ft 206 kts 266°
2026-05-04 22:43 50.47543 19.27413 4007 ft 208 kts 266°
2026-05-04 22:43 50.47551 19.25154 3971 ft 202 kts 266°
2026-05-04 22:43 50.47587 19.22985 3532 ft 198 kts 271°
2026-05-04 22:44 50.47653 19.20828 2868 ft 198 kts 266°
2026-05-04 22:44 50.47636 19.18697 2294 ft 193 kts 264°
2026-05-04 22:44 50.47581 19.16606 1774 ft 188 kts 265°
2026-05-04 22:44 50.47573 19.14633 1520 ft 173 kts 269°
2026-05-04 22:45 50.47588 19.12844 1362 ft 153 kts 269°
2026-05-04 22:45 50.47596 19.09685 1012 ft 137 kts 268°
2026-05-04 22:45 50.47600 19.08378 996 ft 102 kts 270°
2026-05-04 22:46 50.47601 19.07501 999 ft 59 kts 271°
2026-05-04 22:46 50.47557 19.07051 999 ft 37 kts 244°
2026-05-04 22:46 50.47440 19.06719 1000 ft 26 kts 240°
2026-05-04 22:46 50.47347 19.06626 997 ft 16 kts 182°
2026-05-04 22:47 50.47247 19.06658 997 ft 15 kts 129°
2026-05-04 22:47 50.47235 19.06817 997 ft 14 kts 90°
2026-05-04 22:47 50.47197 19.06920 997 ft 12 kts 179°
2026-05-04 22:47 50.47156 19.06920 997 ft 0 kts 180°